sat.trackr.live / text

‹ back to catalog

CSTP 1.1 (STC 1.1)

NORAD 57202 · 2023-091AN

PAYLOAD ACTIVE UNKNOWN

§ Identity

Operator
Country
CIS
Launch date
2023-06-27
Launch site
VOSTO
Launch vehicle
Mass (kg)
RCS (m²)

External: N2YO · Heavens-Above · Gunter

§ Orbital elements

Epoch: 2026-09-21T21:06:43.857792Z

Period
94.75 min
Inclination
97.5017°
Eccentricity
0.0010566
Mean motion
15.19864245 rev/d
Perigee alt
499.0 km
Apogee alt
513.5 km
Semi-major
6,884.4 km
B*
1.3877e-4
RAAN
323.1443°
Arg perigee
127.2301°
Mean anomaly
232.9899°
Rev number
17,864

§ Raw data

CSTP 1.1 (STC 1.1)1 57202U 23091AN  26264.87967428  .00002911  00000+0  13877-3 0  99932 57202  97.5017 323.1443 0010566 127.2301 232.9899 15.19864245178644

JSON: /api/v1/satellites/57202 · /tle

For live sub-satellite position, see the globe view (requires WebGL).

§ Visibility from observer

Set your observer location to see the next 7 days of passes ≥ 10°. The values pass through the URL so the page stays shareable.

No JS? Fill the form by hand. The geolocation button needs JavaScript.

§ Radio — SatNOGS DB

ModeDescriptionDownlinkUplink
LoRa Mode U - LoRa 436.075 MHz

1 transmitter · refreshed weekly from db.satnogs.org